星链-4633 (STARLINK-4633 )

导读 | 豆包AI

STARLINK-4633是美国太空探索技术公司(SpaceX)于2022年10月5日发射的星链低轨互联网通信卫星,隶属于星链星座组网项目。星链旨在构建全球卫星互联网,该卫星进入预定轨道后,为全球范围尤其是偏远地区提供高速网络服务,目前已在轨道稳定运行,支撑星链系统的全球覆盖能力。

Basic Information
目录编号:
53964
目录名称:
STARLINK-4633
国际标识:
2022-125A
轨道中心:
EARTH
卫星名称:
星链-4633
卫星全名:
星链-4633 (STARLINK-4633 )
卫星状态:
在轨 (已飞行1257 天)
发射日期:
2022-10-05 UTC
国别 :
美国 (US)
星等 :
--
Orbit Information
数据来源 国际轨道数据 AOE轨道数据
星历时间 2026-03-15T01:57:50+0800
17小时前
查看轨道信息
2026-03-09T06:00:00+0800
6天前
查看轨道信息
半长轴 6917.878km 6917.889km
偏心率 0.0001283 0.0001833
轨道倾角 53.218° 53.219°
近地点辐角 102.515° 92.610°
升交点赤经 201.564° 227.747°
平近点角 257.598° 252.841°
近地点 538.853km 538.483km
远地点 540.629km 541.021km
周期 95.438分钟 95.438分钟
每日圈数 15.088408 15.088373
Detailed Information
固有亮度:
5
最大亮度:
2.5
卫星平台:
Starlink v1.5
覆盖范围:
全球
运营商:
太空探索技术公司
运营商所在国:
美国
制造商(研发单位):
太空探索技术公司
制造商所在国:
美国
使用方式:
暂无
Satellite Introduction
星链(Starlink)计划是由太空探索技术公司(SpaceX)提出的一个巨型低轨卫星互联网星座项目,计划在2019年至2024年间在太空搭建由约1.2万颗卫星组成的“星链”网络,其中1584颗将部署在地球上空550千米处的近地轨道,并从2020年开始工作。该卫星仍在工作。
2D Orbit Map
3D Orbit Map
Orbit Altitude Analysis Chart
Orbit Inclination Analysis Chart
Orbit Comprehensive Analysis Chart
View Comprehensive Chart